Location: Laterina
(43.5167°N, 11.7167°E)
Time: 15:39:19
(UTC+00:00)

Cosmos 1766 - Pass Details

Date: 24 September 2020
Orbit: 522 x 544 km, 82.5° (Epoch: 25 October)

Event Time Altitude Azimuth Distance (km) Brightness Sun altitude
Exits shadow 18:28:29 - 169° (S) 2,187 6.1 -15.6°
Reaches altitude 10° 18:29:30 10° 165° (SSE) 1,778 5.6 -15.8°
Maximum altitude 18:33:13 44° 93° (E) 749 3.5 -16.4°
Drops below altitude 10° 18:37:00 10° 21° (NNE) 1,805 5.9 -17.1°
Sets 18:39:14 0° 15° (NNE) 2,705 6.9 -17.5°
